Theta_e
311 311 312 312 312 312 312 312 312 312 311 311 310 310 311 312 313 315 316 315 315 316 316 318 317 317 317 319 319 318 311 314 316 319 318 317 316 317 317 317 317 317 317 317 318
312 312 312 313 313 313 313 313 313 313 313 312 312 312 311 310 311 312 313 314 315 315 314 318 318 318 318 319 320 316 311 313 315 317 316 316 316 317 316 315 315 317 317 317 317
312 313 313 313 313 314 314 314 314 314 314 314 313 312 311 311 312 313 317 316 315 316 314 317 318 318 317 319 319 317 315 315 319 318 318 316 315 317 315 313 316 317 318 317 317
313 313 313 313 314 314 314 314 314 315 314 314 314 314 313 311 310 317 315 314 315 317 314 314 317 317 317 317 319 317 317 317 319 320 317 316 317 315 315 317 318 318 318 317 316
313 313 313 313 313 314 314 314 314 314 314 314 314 314 313 311 313 314 313 314 315 315 316 313 316 318 316 316 317 316 317 319 319 319 317 317 315 314 315 317 316 317 317 317 317
308 308 308 308 309 309 310 311 312 312 313 313 314 314 312 311 314 314 314 315 315 314 314 313 315 317 317 317 315 316 316 316 317 317 316 316 314 315 317 317 317 316 316 316 317
309 309 310 310 310 310 310 309 308 308 308 309 311 312 311 314 315 314 314 314 314 313 313 312 314 316 316 316 317 317 314 312 315 316 313 315 313 311 317 316 316 316 316 316 316
312 312 312 313 313 314 314 314 314 312 310 308 307 309 310 313 314 314 313 313 313 313 312 311 313 314 315 315 314 314 312 313 312 312 314 314 314 312 317 316 317 317 316 316 317
314 315 316 316 314 312 311 312 314 314 314 310 308 309 310 312 314 314 314 314 314 313 312 311 312 314 314 311 310 309 308 310 312 312 312 311 313 314 316 316 316 317 317 317 316
322 322 322 322 322 321 320 314 310 311 312 309 311 312 311 312 314 314 314 314 313 312 311 311 312 311 310 308 310 309 310 310 311 313 311 311 311 312 315 314 313 316 317 317 317
323 322 322 322 322 321 321 315 310 311 312 312 311 312 313 314 315 315 314 313 312 312 309 312 309 310 310 310 311 309 309 310 310 311 312 311 312 313 314 313 311 314 314 316 316
323 322 322 322 323 320 319 310 307 307 307 311 310 310 312 313 315 314 313 312 311 310 310 310 310 310 310 309 311 310 311 311 311 311 310 311 312 311 310 313 314 313 313 314 316
323 322 323 323 323 320 319 311 307 308 309 310 311 308 308 308 310 312 313 312 310 310 309 311 311 311 310 311 312 311 311 312 312 311 309 308 312 309 309 312 313 314 314 314 315
322 322 322 322 322 321 317 310 307 307 304 306 310 310 310 311 310 312 312 312 310 310 308 309 311 311 311 312 312 313 311 312 311 311 312 310 313 311 310 310 310 312 313 314 316
323 323 322 321 321 321 319 312 307 308 316 311 309 310 311 309 309 310 311 311 310 311 311 309 311 310 311 312 310 313 311 310 310 309 311 311 311 313 309 310 311 312 313 316 316
324 324 323 322 321 321 321 313 308 308 314 309 309 310 310 311 310 309 311 310 310 310 308 309 310 310 309 310 308 310 312 310 307 308 312 311 311 314 309 311 310 311 313 316 316
320 321 320 320 318 318 321 317 317 314 311 312 310 311 310 310 310 308 308 308 309 309 307 308 308 309 310 311 309 311 311 311 310 310 314 309 311 313 311 309 309 310 313 316 317
319 318 319 319 318 318 320 316 319 315 310 312 311 310 311 310 310 309 308 308 306 308 308 309 312 309 308 310 310 308 311 312 312 313 313 306 311 312 310 311 312 313 314 314 314
317 318 319 320 318 317 320 319 320 317 316 317 316 317 310 310 309 309 307 308 307 307 310 309 310 309 308 309 310 309 311 311 311 300 307 310 310 311 308 307 306 308 310 311 313
311 312 313 316 318 319 314 319 316 315 316 314 318 316 315 309 309 310 309 308 309 306 308 309 311 307 306 306 306 308 308 311 310 311 310 311 311 313 311 310 311 307 308 313 312
307 308 311 314 315 314 316 315 316 316 316 316 317 318 315 311 309 312 313 310 308 309 306 309 311 311 306 307 310 307 308 308 308 312 315 315 314 313 311 308 307 306 310 310 311
304 308 309 314 313 312 315 315 315 313 314 314 314 316 317 317 318 317 316 311 309 309 310 309 312 314 313 309 305 307 308 309 312 312 309 313 314 312 311 309 307 306 310 310 310
307 308 309 313 313 314 313 313 314 314 314 314 314 312 314 315 316 315 315 314 314 313 312 310 312 317 314 311 310 308 310 310 310 310 312 312 312 312 312 311 310 309 312 312 312
304 304 309 311 311 311 311 312 313 313 313 313 313 313 314 314 314 315 315 313 312 312 313 313 314 315 316 314 312 311 309 308 310 311 312 312 311 310 311 311 310 311 311 311 311
300 302 305 308 308 309 310 310 310 311 311 311 312 312 312 313 312 313 312 310 310 311 310 312 314 314 313 314 314 314 314 313 313 313 314 314 312 311 311 311 310 310 311 310 309
298 300 300 300 302 305 306 308 310 309 309 309 310 302 304 305 306 306 304 306 305 303 303 303 310 309 312 311 311 313 313 313 313 313 314 313 313 312 312 312 312 312 311 311 312
295 296 297 298 298 299 300 303 304 302 301 303 299 298 299 299 298 297 298 298 299 300 300 301 304 306 308 310 312 313 312 312 312 312 312 313 312 311 311 310 310 310 305 303 303
Wind_Speed
7 8 8 8 8 8 8 9 9 9 9 9 9 10 10 11 12 14 16 9 6 5 4 2 3 4 5 4 4 3 3 3 5 3 4 2 3 4 4 4 10 13 12 9 6
7 7 8 9 9 9 9 9 9 10 10 10 10 11 12 13 16 19 16 14 10 9 7 4 5 5 3 4 5 4 4 8 6 3 4 3 6 6 4 6 9 15 21 20 15
9 10 10 10 11 11 11 11 11 11 12 12 12 12 13 13 18 6 2 3 13 12 10 8 6 5 4 5 7 6 6 5 7 6 7 4 5 7 6 7 19 22 25 25 23
12 12 12 12 13 13 13 13 13 13 13 13 13 13 14 12 5 2 6 9 8 13 14 11 9 6 5 5 11 4 15 15 8 10 6 4 6 6 17 30 19 12 15 21 27
13 14 15 15 16 16 16 16 16 16 15 15 14 14 14 9 19 21 21 16 11 13 18 17 15 9 5 5 4 6 7 17 22 18 14 15 19 11 23 35 24 25 27 25 24
13 14 15 15 16 17 18 19 18 18 17 16 16 15 14 10 15 13 12 14 15 14 17 20 11 14 8 7 5 5 9 16 16 18 14 8 12 4 37 28 27 28 36 36 36
12 12 13 14 15 16 17 18 19 19 18 18 17 16 18 28 22 22 21 18 17 17 19 20 19 8 2 4 9 7 9 9 14 20 10 8 13 12 51 34 34 30 29 30 38
11 11 12 13 15 17 17 18 18 18 17 17 16 15 14 18 20 22 22 21 17 16 17 17 15 15 12 8 5 3 3 5 0 6 6 14 18 13 24 18 28 29 30 32 35
9 9 10 12 14 16 16 17 18 17 18 16 13 11 10 14 16 16 18 16 12 15 16 14 10 7 3 4 5 2 6 8 12 13 5 7 12 16 22 22 27 29 31 33 37
8 9 10 13 15 17 17 17 15 15 14 8 11 5 15 12 12 12 11 15 9 9 8 7 6 1 1 4 8 7 6 6 8 3 5 6 15 14 27 15 21 26 31 35 36
9 10 11 13 15 17 18 16 5 3 5 8 6 8 9 14 12 12 13 13 9 8 6 7 4 10 21 16 14 4 6 7 8 8 6 10 17 19 29 22 25 38 42 47 48
13 14 13 13 14 13 14 8 7 7 12 19 28 30 32 18 8 16 14 12 9 7 5 1 11 19 4 6 10 11 18 19 14 16 7 14 22 11 10 24 32 32 39 44 50
15 15 15 14 14 10 11 11 10 9 5 16 23 19 21 19 16 19 17 10 5 6 9 15 10 12 12 9 9 16 14 18 16 6 5 10 21 10 12 29 37 41 46 47 50
16 15 16 15 8 10 6 12 11 10 3 7 3 2 3 6 3 7 17 9 4 11 7 8 14 15 8 8 14 15 14 14 9 2 10 3 19 3 6 12 12 28 35 42 50
20 19 16 12 10 6 6 9 8 5 6 3 2 1 6 3 0 3 11 5 4 3 4 10 4 5 10 22 9 17 4 7 3 4 4 6 6 4 8 8 15 18 34 43 45
23 22 18 13 12 8 6 8 4 4 8 5 1 3 3 0 1 2 3 6 1 3 5 14 3 5 8 3 6 1 2 4 4 2 6 12 10 25 6 11 7 14 34 43 46
5 7 11 11 8 12 11 6 2 5 3 3 1 2 2 3 3 4 4 5 5 3 4 3 6 4 6 4 1 4 4 4 3 0 9 8 8 26 8 9 10 15 31 39 41
13 13 15 18 16 11 9 3 7 3 6 2 2 3 4 6 7 6 4 4 6 3 2 2 19 8 6 12 9 10 9 6 8 10 17 6 8 15 13 16 25 34 40 40 37
14 15 19 21 19 13 10 7 5 5 5 4 6 5 5 6 7 6 8 6 8 16 10 5 12 3 5 3 9 4 7 12 4 2 1 6 14 11 7 9 9 21 26 35 40
14 15 24 22 13 21 5 19 6 5 2 1 8 8 7 5 5 6 7 4 5 12 10 5 7 2 4 4 3 5 1 2 2 3 6 7 8 15 16 14 18 11 19 36 34
18 8 11 11 20 14 7 8 9 19 15 9 13 15 10 6 8 9 7 4 5 4 10 4 5 7 2 7 7 0 4 4 2 4 12 15 11 31 15 6 9 10 25 28 25
10 4 11 18 10 6 11 9 8 7 17 15 9 16 20 21 19 15 17 14 4 4 4 5 4 6 18 10 5 5 10 8 10 11 10 15 17 31 21 18 6 7 19 18 13
6 9 10 23 8 12 9 8 9 13 14 5 11 11 13 19 18 20 25 29 29 17 6 6 3 10 4 11 14 11 19 16 15 13 19 16 17 27 22 22 25 18 33 38 41
4 2 10 24 25 9 13 16 14 11 9 15 14 15 18 22 22 16 21 12 22 25 30 16 15 17 18 18 6 7 13 15 21 15 21 23 28 29 34 29 23 30 36 38 40
7 5 4 4 12 13 14 11 14 14 14 6 4 11 12 12 10 10 10 11 15 19 6 7 16 18 24 28 28 29 28 28 27 27 23 27 27 24 28 33 22 28 31 28 26
4 2 6 5 4 3 5 5 4 3 2 4 6 8 5 3 5 8 3 3 3 8 9 8 8 13 20 26 28 32 33 34 33 33 28 28 29 27 30 46 38 42 31 30 30
7 9 4 6 3 1 4 5 4 4 3 6 5 7 8 9 13 20 24 26 19 19 24 11 10 13 25 17 22 23 29 35 32 28 22 25 28 21 20 22 23 32 24 26 30
Wind_Direction
346 347 348 350 352 353 353 353 353 353 353 350 344 336 324 311 298 284 276 266 259 244 242 210 164 175 190 191 189 190 64 252 251 233 262 239 241 231 240 236 209 209 238 238 230
322 324 327 329 331 332 332 332 332 333 333 334 332 329 324 315 305 288 284 260 248 249 244 234 192 177 196 209 197 154 149 226 218 232 239 253 232 256 236 235 237 235 240 243 237
312 314 315 316 317 319 319 320 320 321 321 322 323 321 317 316 313 301 24 247 238 243 242 225 219 204 223 212 199 188 213 220 256 256 255 249 252 241 223 252 241 243 252 243 238
304 307 307 306 306 307 309 310 311 311 311 312 313 314 311 308 292 296 292 304 284 242 237 228 211 199 214 215 217 204 244 241 270 283 264 236 253 240 229 252 260 269 270 256 243
297 299 300 300 300 298 299 299 300 301 302 304 305 304 301 279 266 286 286 284 265 245 233 225 211 205 202 218 244 231 254 257 253 260 275 271 252 237 255 267 261 261 257 248 247
293 296 298 300 301 301 298 294 292 291 292 293 294 294 287 256 283 287 283 274 260 248 234 223 223 224 266 243 197 269 262 266 270 262 263 235 277 230 272 274 266 260 252 249 250
296 301 304 305 304 301 303 301 297 293 291 288 286 284 269 265 276 277 273 265 257 253 243 236 228 208 241 289 273 283 301 312 258 256 235 215 285 229 266 272 272 264 259 251 251
299 303 307 307 305 302 300 295 294 295 293 287 282 273 259 269 266 258 257 259 255 248 244 244 235 246 255 281 325 307 333 309 284 157 236 164 258 253 268 262 266 268 263 254 254
303 312 317 316 312 307 305 295 291 285 280 277 268 239 259 263 264 266 254 252 262 243 240 246 230 235 275 94 337 307 246 226 304 214 151 180 245 269 264 247 260 265 267 267 264
320 331 333 328 326 321 322 316 299 285 269 258 226 224 238 249 257 266 248 232 220 218 223 205 188 183 71 130 227 219 223 254 244 230 170 237 253 273 268 257 255 264 267 267 267
317 322 332 331 332 330 329 345 322 301 266 231 247 228 234 256 248 246 235 203 196 179 175 181 138 209 231 208 227 202 224 236 253 246 213 232 236 247 265 269 258 265 268 267 264
309 316 325 326 333 332 341 22 357 313 301 275 265 249 251 254 241 230 211 181 176 202 150 152 214 223 234 198 228 247 255 260 272 269 206 263 257 247 249 266 262 259 263 263 272
293 304 313 321 327 331 350 4 348 340 265 281 256 257 262 251 239 251 217 196 172 183 207 225 231 226 228 233 230 231 239 253 255 297 254 293 277 240 243 255 268 265 260 265 264
283 291 303 322 320 337 355 348 345 335 19 272 239 246 208 161 231 223 197 220 212 223 212 235 247 229 213 225 219 261 225 250 255 278 275 118 295 137 232 245 254 260 259 259 262
269 277 284 301 304 340 341 348 340 344 304 256 209 215 157 136 13 21 205 215 239 205 171 242 204 186 217 234 191 258 181 231 238 217 337 178 260 243 197 234 249 257 259 265 265
266 259 255 262 297 309 326 346 331 43 254 306 75 26 76 214 226 145 164 197 274 273 224 251 229 211 227 201 204 131 83 46 55 103 275 209 195 279 179 210 240 254 257 265 267
261 284 294 258 306 319 299 322 333 201 302 261 129 171 165 221 255 178 167 174 195 297 263 315 219 213 181 233 171 178 102 301 325 71 231 182 188 253 293 261 225 240 255 264 265
268 273 252 267 278 295 293 66 236 199 258 305 113 153 216 162 241 197 183 226 239 180 274 240 293 174 178 202 193 202 186 185 208 246 266 110 230 267 225 244 242 251 257 264 268
264 256 248 260 271 254 204 230 232 205 203 231 326 290 230 228 210 153 208 221 216 187 199 196 267 196 187 193 159 188 194 234 310 334 12 257 269 295 260 272 295 272 274 269 270
282 278 270 265 252 217 201 234 210 229 236 205 243 203 222 209 195 183 196 197 231 192 214 259 266 90 347 323 320 196 206 77 226 225 245 237 262 266 282 287 276 292 279 287 284
277 273 265 235 223 199 222 234 235 221 227 214 248 251 240 198 209 238 259 257 217 209 185 200 198 281 65 190 203 225 257 229 243 196 258 265 264 266 265 292 275 296 316 327 324
244 240 229 196 199 217 235 227 226 206 230 245 259 253 259 270 261 254 253 232 233 147 201 218 201 215 251 256 222 210 223 208 237 250 237 251 254 273 285 263 236 269 328 338 348
224 234 222 206 230 231 236 252 252 255 244 219 241 233 233 252 265 256 259 257 261 258 238 177 220 271 244 279 262 228 235 231 239 254 252 261 263 269 274 262 260 294 295 295 292
229 261 197 216 236 258 245 251 249 238 250 250 260 266 274 269 257 265 266 270 252 239 237 227 247 243 251 255 276 237 236 227 235 246 248 244 257 262 272 268 268 266 273 281 285
222 248 246 221 233 243 253 259 261 271 246 227 242 253 272 276 286 282 307 333 314 318 309 235 251 234 235 246 250 257 260 263 249 251 252 255 253 258 267 275 279 283 277 286 294
251 291 317 287 281 240 209 208 230 243 281 286 278 19 348 288 332 306 322 18 282 324 343 318 297 309 294 265 246 244 245 250 252 252 255 255 253 251 256 267 276 281 299 293 286
239 264 315 275 333 109 240 245 263 61 261 231 352 325 310 319 322 302 291 276 256 268 277 263 279 293 284 288 276 258 245 251 257 262 261 259 260 285 294 289 298 309 6 12 357